Location: Stigler
(35.2540°N, 95.1230°W)
Time: 13:50:27
(UTC-05:00)

Cosmos 1125 Rocket - Pass Details

Date: 26 September 2017
Orbit: 757 x 781 km, 74.0° (Epoch: 22 October)

Event Time Altitude Azimuth Distance (km) Brightness Sun altitude
Rises 20:14:55 0° 347° (NNW) 3,261 7.1 -13.8°
Reaches altitude 10° 20:17:20 10° 351° (N) 2,333 6.2 -14.3°
Maximum altitude 20:22:34 59° 70° (ENE) 900 3.6 -15.4°
Enters shadow 20:27:20 12° 149° (SSE) 2,158 5.5 -16.4°
